RH
33 37 40 40 44 49 52 51 50 56 52 66 75 78 68 62 60 62 70 78 78 80 77 84 86 78 83 87 87 87 83 80
35 41 45 48 52 56 56 58 58 53 52 64 73 80 79 77 58 60 67 75 81 81 81 86 82 85 80 87 94 94 94 88
41 45 51 59 60 62 63 60 61 59 58 58 74 81 79 73 62 58 62 75 83 76 83 83 81 74 86 86 89 93 88 88
50 51 54 58 62 68 66 66 68 68 67 64 80 86 86 79 74 61 63 66 80 80 79 80 82 81 77 85 86 85 96 88
53 54 57 64 65 69 70 72 73 69 70 74 85 93 93 75 71 64 60 64 72 81 80 77 83 80 78 80 86 85 86 84
59 62 60 61 65 75 76 75 76 72 76 82 93 94 92 81 68 68 63 67 68 75 80 82 83 84 82 84 86 89 84 78
60 64 67 69 78 85 83 82 78 77 79 86 94 96 96 90 93 83 69 78 76 78 82 83 80 83 86 84 87 87 88 85
74 76 80 78 83 89 89 87 84 84 86 90 92 94 96 97 96 98 97 96 96 97 89 90 88 85 82 83 87 87 87 86
83 78 82 88 94 89 95 95 91 88 89 91 91 91 94 95 97 97 97 97 94 97 97 94 92 93 90 92 87 90 90 91
87 81 87 97 96 96 97 96 96 89 93 92 93 90 91 94 95 96 96 96 92 95 95 94 92 96 95 96 98 97 93 91
89 89 97 95 98 96 97 97 100 93 91 92 90 91 89 90 90 92 94 94 95 93 92 90 93 92 92 98 98 96 97 96
95 92 97 99 99 97 98 98 100 98 91 92 88 87 90 88 91 90 91 90 90 88 86 84 85 88 87 92 95 95 97 94
96 97 95 98 98 98 98 97 96 100 88 86 86 82 83 89 87 88 85 86 84 84 84 82 82 84 87 90 90 91 94 96
94 94 96 96 97 99 99 99 97 96 84 87 87 84 82 84 83 84 82 82 82 80 81 83 83 85 86 88 90 91 92 94
83 89 91 95 98 99 100 99 99 97 95 90 88 88 85 82 81 80 82 81 84 82 82 82 83 83 84 86 86 88 87 86
68 72 77 83 90 90 90 84 90 94 97 96 96 88 82 78 80 79 78 80 78 79 82 84 87 83 84 89 86 88 88 88
67 70 71 71 71 81 81 84 83 79 80 83 77 78 76 77 76 77 77 77 78 78 81 80 86 85 91 92 89 91 86 88
76 76 80 70 65 66 73 73 74 77 80 75 73 72 74 77 74 72 78 79 78 80 81 80 83 84 85 87 84 82 86 88
69 87 82 71 60 60 65 66 72 74 76 74 72 73 74 74 76 77 78 76 78 80 80 80 81 74 80 82 82 82 86 86
Wind_Speed
22 25 22 22 23 24 23 22 16 18 13 11 14 10 9 9 9 11 14 12 15 10 7 6 5 7 6 5 6 4 5 5
21 21 23 22 19 23 25 21 22 17 14 11 11 13 11 13 12 13 14 15 17 14 7 8 8 6 9 7 4 4 3 2
22 20 21 21 21 20 22 22 20 18 14 13 11 11 13 13 13 13 16 16 16 17 11 12 12 10 5 7 7 4 5 5
21 21 20 21 20 21 18 22 22 19 20 15 11 13 13 14 16 13 11 14 18 18 18 9 11 10 11 8 10 11 7 5
20 19 20 19 18 19 19 19 21 18 20 16 15 13 13 16 16 12 12 15 15 18 16 14 11 11 12 11 10 10 8 9
19 19 18 20 18 18 18 19 18 16 17 17 10 13 13 14 15 18 17 16 16 15 14 13 10 10 12 10 13 12 10 7
18 18 17 17 17 17 17 20 16 14 16 16 11 10 12 12 4 12 16 10 10 14 16 15 14 9 12 13 11 14 11 10
16 18 18 18 20 18 17 20 18 14 16 13 11 8 11 11 1 7 13 8 6 11 12 9 7 8 10 11 9 12 12 10
16 18 19 19 19 20 21 21 20 16 14 14 11 12 9 10 16 12 11 9 6 21 21 5 6 2 6 6 7 7 11 10
17 18 19 18 18 21 21 20 18 16 14 11 9 11 16 14 14 10 6 16 11 9 11 14 16 4 5 4 4 4 7 10
15 16 17 18 18 19 20 18 16 16 13 10 8 15 16 15 15 18 15 13 13 10 18 15 14 17 12 3 4 5 8 7
13 15 15 16 17 19 19 19 16 15 11 10 11 18 19 18 15 17 11 16 17 18 15 17 15 15 16 13 13 9 8 11
12 14 15 16 17 17 18 19 18 15 10 15 17 19 18 20 18 22 17 21 15 14 18 16 16 16 14 14 13 12 11 14
12 13 15 15 16 15 14 16 19 19 19 16 19 20 20 20 17 17 17 16 16 17 20 16 17 17 16 14 11 11 11 12
14 14 14 14 14 14 13 15 16 17 18 20 21 20 19 18 18 20 18 17 18 15 16 16 17 17 17 15 13 13 12 13
16 15 15 16 16 16 16 17 17 16 16 18 19 18 17 16 19 17 16 18 15 16 15 16 16 17 16 17 15 17 16 13
15 15 15 14 14 15 16 15 17 17 18 20 16 18 16 18 17 17 16 17 20 18 19 19 21 16 33 33 16 14 14 16
11 12 10 11 11 12 13 15 14 16 16 18 18 15 18 18 16 18 18 18 15 15 18 17 19 21 32 30 23 9 13 13
8 4 7 9 11 10 11 12 13 15 16 17 17 17 19 17 16 18 18 18 17 15 17 18 15 17 32 31 21 14 12 13
Wind_Direction
351 345 343 339 334 332 334 332 322 325 322 332 258 222 224 220 211 198 189 191 204 218 195 178 181 193 200 180 195 203 186 185
346 343 336 334 335 329 327 326 329 330 324 316 310 237 219 235 208 208 189 187 190 209 194 181 196 215 196 183 149 182 241 215
337 338 337 333 330 330 322 319 322 314 314 319 308 300 233 218 220 212 196 176 185 199 209 186 188 209 219 165 175 179 209 205
338 336 333 328 327 329 323 316 314 310 308 304 314 301 285 221 218 206 197 189 180 191 201 186 177 187 206 193 189 194 192 203
338 337 333 332 327 325 323 317 308 309 305 302 301 297 282 242 213 199 202 198 179 181 186 196 182 183 200 201 194 200 186 200
342 342 340 335 334 328 322 317 304 309 314 303 299 288 271 258 218 197 198 195 197 173 170 187 211 181 194 202 191 196 202 202
350 347 342 339 335 331 331 323 315 318 318 300 293 313 304 268 324 255 185 173 181 178 179 182 200 203 195 206 179 191 201 201
352 351 351 345 342 340 337 332 324 329 324 317 312 12 26 19 18 35 34 39 57 356 177 168 188 198 216 187 182 185 201 191
355 355 353 345 345 346 343 337 328 330 337 322 329 42 51 52 49 38 34 17 296 31 341 26 159 217 242 183 196 189 195 206
358 355 357 348 347 353 346 335 329 334 333 340 343 46 57 50 58 56 354 78 4 2 1 16 348 198 201 202 225 203 210 208
359 357 355 351 354 357 348 338 341 340 358 352 7 54 56 56 49 47 31 36 60 26 25 18 15 11 350 214 203 225 234 230
2 358 357 354 358 360 349 350 344 341 2 25 28 50 55 56 56 55 40 57 30 37 35 29 23 16 11 8 5 348 264 247
9 359 357 3 4 356 353 351 351 348 357 33 46 49 56 60 46 53 32 49 45 29 52 28 21 16 14 13 3 357 340 346
16 6 4 6 4 0 359 355 354 357 10 26 36 42 46 50 54 59 51 53 48 45 47 33 26 17 10 10 4 2 357 354
15 10 7 5 5 3 6 7 2 5 5 24 35 35 37 39 47 45 42 50 45 51 47 42 34 23 14 7 22 21 26 23
20 13 7 5 5 8 10 13 13 17 22 31 33 32 33 41 46 45 45 51 47 43 47 43 40 31 18 8 23 23 17 20
24 16 9 6 14 7 9 16 18 17 22 28 34 36 37 40 44 44 47 45 39 33 30 36 34 23 13 13 15 24 19 19
37 21 1 6 18 21 19 14 16 24 30 35 33 30 39 40 39 44 43 43 45 42 38 36 36 27 22 11 13 21 30 12
48 40 4 17 8 34 28 23 25 27 32 35 32 30 34 32 31 35 36 35 34 37 37 33 32 28 23 19 15 18 18 19